Flag for U.S.A. Weather past 2 weeks in Germantown, Maryland, U.S.A.

Now
19 °F

Sunny.


Feels Like: 19 °F
Forecast: 15 / 35 °F
Wind: No wind

Location: Frederick Municipal Airport

Current Time: Jan 29, 2015 at 9:34:46 AM

Latest Report: Jan 29, 2015 at 8:50 AM


Visibility: 10 mi

Pressure: 30.32 "Hg

Humidity: 68%

Dew point: 10 °F

Location of GermantownLocation

Historic Weather in Germantown — Graph

°F

Germantown temperature yesterday

Maximum temperature yesterday: 36 °F (at 1:56 PM)
Minimum temperature yesterday: 16 °F (at 8:45 PM)
Average temperature yesterday: 24 °F

Past Weeks' High & Low Weather Summary

 TemperatureHumidityPressure
High48 °F (Jan 25, 1:45 PM)100% (Jan 17, 6:45 AM)30.45 "Hg (Jan 17, 6:45 AM)
Low12 °F (Jan 29, 4:05 AM)21% (Jan 28, 11:45 AM)29.49 "Hg (Jan 24, 1:51 PM)
Average32 °F70%30.06 "Hg
* Reported Jan 14 7:45 AM — Jan 29 7:45 AM, Germantown, Weather by CustomWeather, © 2014

Note: Actual official high and low records may vary slightly from our data, if they occured in-between our weather recording intervals... More about our weather records

Advertising

Germantown weather history for previous 24 hours

 ConditionsComfort  
Time TempWeatherWind HumidityBarometerVisibility
7:45 AM
Jan 29
16 °FSunny.No wind73%30.37 "Hg10 mi
6:45 AM14 °FClear.No wind79%30.36 "Hg10 mi
5:30 AM14 °FClear.No wind85%30.35 "Hg10 mi
5:25 AM14 °FClear.No wind85%30.34 "Hg10 mi
5:05 AM14 °FClear.No wind85%30.35 "Hg10 mi
4:45 AM14 °FClear.No wind79%30.35 "Hg10 mi
4:25 AM14 °FClear.No wind79%30.35 "Hg10 mi
4:05 AM12 °FClear.No wind85%30.36 "Hg10 mi
3:45 AM14 °FClear.No wind85%30.36 "Hg10 mi
3:25 AM18 °FClear.No wind79%30.36 "Hg10 mi
3:05 AM14 °FClear.No wind85%30.36 "Hg10 mi
2:45 AM18 °FClear.No wind79%30.36 "Hg10 mi
2:25 AM14 °FClear.No wind85%30.36 "Hg10 mi
2:05 AM18 °FClear.No wind73%30.36 "Hg10 mi
1:45 AM18 °FClear.No wind79%30.36 "Hg10 mi
1:25 AM14 °FClear.No wind79%30.36 "Hg10 mi
1:05 AM18 °FClear.3 mph79%30.36 "Hg10 mi
12:45 AM16 °FClear.No wind79%30.36 "Hg10 mi
12:25 AM19 °FClear.3 mph73%30.37 "Hg10 mi
12:05 AM19 °FClear.3 mph73%30.37 "Hg10 mi
11:45 PM
Jan 28
21 °FClear.3 mph63%30.37 "Hg10 mi
11:25 PM19 °FClear.5 mph68%30.37 "Hg10 mi
11:05 PM19 °FClear.3 mph68%30.37 "Hg10 mi
10:45 PM16 °FClear.5 mph79%30.37 "Hg10 mi
10:25 PM16 °FClear.No wind73%30.36 "Hg10 mi
10:05 PM19 °FClear.3 mph79%30.35 "Hg10 mi
9:45 PM19 °FClear.No wind73%30.36 "Hg10 mi
9:25 PM18 °FClear.No wind73%30.35 "Hg10 mi
9:05 PM19 °FClear.3 mph73%30.36 "Hg10 mi
8:45 PM16 °FClear.No wind79%30.35 "Hg10 mi
8:25 PM21 °FClear.No wind74%30.35 "Hg10 mi
8:05 PM23 °FClear.No wind54%30.34 "Hg10 mi
7:45 PM21 °FClear.No wind63%30.33 "Hg10 mi
5:45 PM30 °FClear.2 mph31%30.30 "Hg10 mi
4:45 PM34 °FSunny.6 mph27%30.29 "Hg10 mi
3:55 PM36 °FSunny.12 mph25%30.26 "Hg10 mi
2:55 PM36 °FChilly.15 mph25%N/A10 mi
1:56 PM36 °FSunny.16 mph25%30.25 "Hg10 mi
12:50 PM34 °FSunny.14 mph23%30.26 "Hg10 mi
11:45 AM34 °FSunny.10 mph21%30.27 "Hg10 mi
9:45 AM28 °FSunny.10 mph26%30.26 "Hg10 mi
Weather by CustomWeather, © 2014

See weather overviewHow to use our weather pages